Regional Weather Roundup
Issued by NWS Wakefield, VA

Home | Current Version | Previous Version | Graphics & Text | Print | Product List | Glossary On
Versions: 1 2 3 4 5 6 7 8 9 10 11 12 13 14 15 16 17 18 19 20 21 22 23 24 25 26 27
000
ASUS41 KAKQ 240515
RWRAKQ

REGIONAL WEATHER ROUNDUP
NATIONAL WEATHER SERVICE WAKEFIELD VA
100 AM EDT SUN JUL 24 2016

Note: "fair" indicates few or no clouds below 12,000 feet with no
significant weather and/or obstructions to visibility. * = Denotes
station may not report precipitation (e.g., rain,snow,etc.),
thunder or fog.

VAZ042-051-052>054-056-240600-
NORTHERN VIRGINIA

CITY           SKY/WX    TMP DP  RH WIND       PRES   REMARKS
WASH NATIONAL  MOCLDY    84  78  82 SW5       29.94R HX  95
DULLES         FAIR      76  73  91 SW3       29.96R
FORT BELVOIR   FAIR      78  73  85 CALM      29.94R
QUANTICO       FAIR      83  76  79 NW10      29.94R
FREDERICKSBRG* FAIR      79  74  85 W3        29.93S
STAFFORD*      FAIR      78  72  80 CALM      29.99R
WARRENTON      FAIR      77  71  81 CALM      29.95S
CULPEPER*      FAIR      76  73  90 CALM      29.97S
MANASSAS*      FAIR      77  75  94 CALM      29.95S
LEESBURG*      FAIR      81  73  78 CALM      29.97R
WINCHESTER     FAIR      79  70  73 CALM      29.99S
FRONT ROYAL*   FAIR      75  72  88 S5        29.99R
LURAY*         FAIR      73  73 100 CALM      30.01S
$$

VAZ048-049-060>072-079>083-240600-
CENTRAL AND SOUTH CENTRAL VIRGINIA

CITY           SKY/WX    TMP DP  RH WIND       PRES   REMARKS
RICHMOND       MOCLDY    82  74  76 SW7       29.96R
CHESTERFIELD*  FAIR      81  64  57 SW3       29.98R
PETERSBURG*    FAIR      80  79  96 SW3       29.98R
HANOVER        FAIR      83  72  69 SW3       29.97R
TAPPAHANNOCK*  FAIR      81  80  96 SW3       29.95S
QUINTON*       FAIR      81  77  88 S3        29.95R
CHARLOTTSVILLE FAIR      78  73  84 NW3       29.98R
GORDONSVILLE*  FAIR      76  74  95 CALM      29.97S
ORANGE*          N/A     77  77 100 CALM      29.98S
LOUISA*        FAIR      77  75  94 CALM      29.96S FOG
BUMPASS*       MOCLDY    77  76  97 CALM      29.97S
FARMVILLE*     FAIR      78  76  93 SW5       29.97S
CREWE*         FAIR      76  76 100 CALM      29.98R
FORT PICKETT*  FAIR      77  77  98 SW6       29.98S
CHASE CITY*    FAIR      76  74  94 CALM      29.99S
CLARKSVILLE*   FAIR      77  77 100 SW3       29.98F
SOUTH HILL*    FAIR      76  74  96 CALM      30.04S
LAWRENCEVILLE* FAIR      77  76  97 CALM      29.98S
EMPORIA*       FAIR      77  75  94 CALM      29.99S
$$

VAZ088>098-240600-
SOUTHEAST VIRGINIA

CITY           SKY/WX    TMP DP  RH WIND       PRES   REMARKS
NORFOLK        FAIR      83  75  77 SW14      29.96R
VIRGINIA BEACH MOCLDY    86  74  67 SW12      29.96R
NORFOLK NAVAL  FAIR      83  75  77 SW10G18   29.98R
WEST POINT*    FAIR      82  76  81 CALM      29.96S
SALUDA*        FAIR      82  78  86 SW6       29.94S
NEWPORT NEWS   FAIR      83  76  79 SW8       29.96R
LANGLEY AFB    FAIR      85  76  75 SE8       29.96R
FORT EUSTIS    FAIR      83  77  82 SW7       29.95R
WILLIAMSBURG*  FAIR      84  75  74 CALM      29.97R
HR EXEC AP*    FAIR      81  73  78 SW6       30.00R
FRANKLIN*      FAIR      80  75  86 SW5       29.98S
US460-WAKEFLD  FAIR      80  75  84 S3        29.97R
$$

VAZ020-022-025-037-045-240600-
WEST CENTRAL AND SOUTHWEST VIRGINIA

CITY           SKY/WX    TMP DP  RH WIND       PRES   REMARKS
STAUNTON*      FAIR      72  70  93 CALM      30.05S
WAYNESBORO*    FAIR      76  70  81 SW5       30.05S
HOT SPRINGS VA NOT AVBL
LYNCHBURG      FAIR      73  71  93 CALM      30.02S
DANVILLE       FAIR      76  73  91 SW5       30.00S
SOUTH BOSTON*  FAIR      75  74  95 CALM      29.99S
MARTINSVILLE   FAIR      71  70  95 CALM      30.05S
ROANOKE        FAIR      80  69  69 CALM      30.04F
BLACKSBURG     FAIR      72  69  91 CALM      30.13S
DUBLIN*        FAIR      72  68  88 NW5       30.11S
MARION*        FAIR      69  67  94 SW3       30.17R FOG
HILLSVILLE*    FAIR      73  67  80 S5        30.13S
RICHLANDS*     FAIR      72  72  99 CALM      30.15R
WISE*          FAIR      72  59  64 CALM      30.17R
ABINGDON*      FAIR      75  69  79 CALM      30.13R
$$

MDZ021>025-VAZ099-100-240600-
SOUTHERN MARYLAND AND THE DELMARVA PENINSULA

CITY           SKY/WX    TMP DP  RH WIND       PRES   REMARKS
PATUXENT RIVER CLOUDY    84  74  71 SW8       29.92S
BAY BRIDGE APT CLEAR     81  77  89 SW5       29.92R
LEONARDTOWN    CLOUDY    82  73  74 SW5       29.95R
DOVER          CLEAR     75  75 100 N6        29.91R
GEORGETOWN     PTCLDY    80  76  87 CALM      29.92S
EASTON         CLEAR     78  78 100 CALM      29.95S
CAMBRIDGE      CLEAR     79  75  89 CALM      29.92S
SALISBURY      CLEAR     79  77  94 SW3       29.92S
OCEAN CITY     PTCLDY    82  77  84 SW6       29.92S
WALLOPS ISLAND FAIR      84  76  76 SW7       29.93S
ACCOMACK*      FAIR      82  75  78 CALM      29.94S
$$

NCZ012>017-030>032-240600-
NORTH CENTRAL AND EASTERN NORTH CAROLINA

CITY           SKY/WX    TMP DP  RH WIND       PRES   REMARKS
ROANOKE RAPIDS FAIR      77  75  94 SW3       29.98S
RALEIGH        PTCLDY    78  72  81 W3        30.00R
ELIZABETH CITY CLEAR     79  74  84 SW8       29.99R
AHOSKIE*       CLEAR     77  74  93 S3        29.99R
EDENTON*       CLEAR     82  73  75 SW7       30.00R
CURRITUCK*     CLEAR     81  75  81 SW7       29.99S
KILL DEVIL HLS CLEAR     81  75  82 SW8       29.98S
MANTEO           N/A     80  78  92 SW10      30.00S
CAPE HATTERAS  CLEAR     81  75  82 SW8       30.01S
TARBORO*       FAIR      79  75  89 CALM      30.01R
GOLDSBORO      CLEAR     77  77 100 SW5       29.99R
WASHINGTON     CLEAR     77  73  87 S3        30.01R
GREENVILLE     CLEAR     79  73  83 S3        30.02R
NEW BERN       CLEAR     78  74  87 SW5       30.01F
WILMINGTON     CLEAR     76  74  93 CALM      30.02R
$$

VAZ048-240600-
ELSEWHERE

CITY           SKY/WX    TMP DP  RH WIND       PRES   REMARKS
HARRISBURG PA  PTCLDY    74  71  91 SE3       29.94S
BALTIMORE      PTCLDY    73  71  93 CALM      29.93R
ANNAPOLIS      CLEAR     79  77  94 NW3       29.91R
ANDREWS AFB    FAIR      78  73  84 W3        29.93R
PHILADELPHIA   PTCLDY    79  70  74 NW5       29.93R
GREENSBORO     PTCLDY    79  70  74 W3        30.02R
ROCKY MOUNT    CLEAR     77  73  87 S3        30.00R
$$

VAZ100-240600-
MARINE

STATION/POSITION TIME  TEMP    WIND        PRES    WAVE   SWELL
                       AIR SEA DIR/SP/G            HT/PER HT/PER
                 (UTC) (F)     (DEG/KT/KT) (MB)    (FT/S) (FT/S)
BRANDYWINE LGT   0400   78     200/ 14/ 15   N/A
CAPE MAY NJ      0400   77 75  170/  4/  6 1012.1
LEWES DE         0400   80 76  200/  4/  5 1012.4
OCEAN-CITY-INLET 0400   80 68  250/  5/  5 1013.4
WACHAPREAGUE VA  0400   84 85  240/  4/  7 1013.7
THOMAS POINT MD  0500   83 83  270/  6/  7 1014.4R
GOOSES REEF MD   0500   85 84  250/  4/  4 1014.2S   1
COVE POINT MD    0400   85     330/  2/  3 1013.8
SOLOMONS ISLAND  0400   86 84  220/  9/ 11   N/A
BISHOPS HEAD MD  0400   87     220/ 12/ 15 1013.3
PINEY POINT MD   0400          240/ 10/ 12   N/A
POTOMAC MD       0500   85 85  240/ 12/ 14 1012.3R   1/ 2
CAMBRIDGE MD     0400   84 86  220/  2/  3 1012.3
LEWISETTA VA     0400   85 86  230/  9/ 11 1013.0
RAPPAHANNOCK LGT 0400          210/ 12/ 13 1014.3
STINGRAY PT      0500   85 85  170/ 12/ 14 1014.3R
YORK RVR RNG VA  0400   86     230/ 10/ 11 1013.6
YORKTOWN VA      0400   85 84  230/  7/ 11 1013.7
JAMESTOWN VA     0500   84 87  230/ 10/ 12   N/A
DOMINION TERM VA 0400   84     220/  9/ 10 1014.3
KIPTOPEKE VA     0400      83  180/  7/  7   N/A
CHES BAY BRIDGE  0400   85 77  190/  7/  9 1014.2
CAPE HENRY VA    0400   83     200/  6/  8   N/A
WILLOUBY STN VA  0400   86     240/  8/ 12   N/A
CAPE HENRY BUOY  0412      80                N/A     2/ 9
1ST LANDING BUOY 0500   83 82  220/ 12/ 12 1014.1R
CAPE CHARLES BUO 0426      73                N/A     2/10
OFFSHORE WE BUOY 0421      81                N/A     3/ 8
64NM E OF VA BCH 0450   82 80  220/ 16/ 17 1014.5R   4/ 5   2/ 8
DUCK PIER NC     0400   83 61  220/ 14/ 18 1014.5
44100 DUCK FRF   0405      80                N/A     2/ 8
44056 DUCK FRF   0411      72                N/A     1/ 8
OREGON INLET NC  0400   84 85  210/ 16/ 18 1015.6
HATTERAS NC      0400   82 83  210/  8/ 10 1015.9
DIAMOND SHLS NC  0450   84 86  210/ 14/ 16 1016.0F   2/ 4   2/ 9
CAPE LOOKOUT NC  0500   83     210/  8/ 10 1016.1S
$$




USA.gov is the U.S. government's official web portal to all federal, state and local government web resources and services.